owner,sensor,date,latitude,longitude,vertical_datum,wind_speed,wind_to_direction,wind_speed_of_gust,qcFlag 
ADCP,ioos:station:wmo:42390:1,2014-06-01T00:30:00Z,26.1290,-94.8980,1.0,5.7,38.0,99.0,'11111222,11111222,11144222' 
ADCP,ioos:station:wmo:42390:1,2014-06-01T01:30:00Z,26.1290,-94.8980,1.0,5.9,68.0,99.0,'11111222,11111222,11144222' 
ADCP,ioos:station:wmo:42390:1,2014-06-01T02:30:00Z,26.1290,-94.8980,1.0,5.1,72.0,99.0,'11111222,11111222,11144222' 
ADCP,ioos:station:wmo:42390:1,2014-06-01T03:30:00Z,26.1290,-94.8980,1.0,4.9,81.0,99.0,'11111222,11111222,11144222' 
ADCP,ioos:station:wmo:42390:1,2014-06-01T04:30:00Z,26.1290,-94.8980,1.0,4.5,87.0,99.0,'11111222,11111222,11144222' 
ADCP,ioos:station:wmo:42390:1,2014-06-01T05:30:00Z,26.1290,-94.8980,1.0,4.3,94.0,99.0,'11111222,11111222,11144222' 
ADCP,ioos:station:wmo:42390:1,2014-06-01T07:30:00Z,26.1290,-94.8980,1.0,3.5,109.0,99.0,'11111222,11111222,11144222' 
ADCP,ioos:station:wmo:42390:1,2014-06-01T08:30:00Z,26.1290,-94.8980,1.0,2.0,99.0,99.0,'11111222,11111222,11144222' 
ADCP,ioos:station:wmo:42390:1,2014-06-01T09:30:00Z,26.1290,-94.8980,1.0,1.5,69.0,99.0,'11111222,11111222,11144222' 
ADCP,ioos:station:wmo:42390:1,2014-06-01T10:30:00Z,26.1290,-94.8980,1.0,3.0,81.0,99.0,'11111222,11111222,11144222' 
ADCP,ioos:station:wmo:42390:1,2014-06-01T11:30:00Z,26.1290,-94.8980,1.0,3.2,72.0,99.0,'11111222,11111222,11144222' 
ADCP,ioos:station:wmo:42390:1,2014-06-01T12:30:00Z,26.1290,-94.8980,1.0,2.6,78.0,99.0,'11111222,11111222,11144222' 
ADCP,ioos:station:wmo:42390:1,2014-06-01T13:30:00Z,26.1290,-94.8980,1.0,2.2,70.0,99.0,'11111222,11111222,11144222' 
ADCP,ioos:station:wmo:42390:1,2014-06-01T14:30:00Z,26.1290,-94.8980,1.0,2.0,49.0,99.0,'11111222,11111222,11144222' 
ADCP,ioos:station:wmo:42390:1,2014-06-01T15:30:00Z,26.1290,-94.8980,1.0,2.8,44.0,99.0,'11111222,11111222,11144222' 
ADCP,ioos:station:wmo:42390:1,2014-06-01T16:30:00Z,26.1290,-94.8980,1.0,4.4,48.0,99.0,'11111222,11111222,11144222' 
ADCP,ioos:station:wmo:42390:1,2014-06-01T17:30:00Z,26.1290,-94.8980,1.0,4.0,61.0,99.0,'11111222,11111222,11144222' 
ADCP,ioos:station:wmo:42390:1,2014-06-01T18:30:00Z,26.1290,-94.8980,1.0,4.0,69.0,99.0,'11111222,11111222,11144222' 
ADCP,ioos:station:wmo:42390:1,2014-06-01T19:30:00Z,26.1290,-94.8980,1.0,3.6,82.0,99.0,'11111222,11111222,11144222' 
ADCP,ioos:station:wmo:42390:1,2014-06-01T20:30:00Z,26.1290,-94.8980,1.0,3.7,87.0,99.0,'11111222,11111222,11144222' 
ADCP,ioos:station:wmo:42390:1,2014-06-01T21:30:00Z,26.1290,-94.8980,1.0,4.9,93.0,99.0,'11111222,11111222,11144222' 
ADCP,ioos:station:wmo:42390:1,2014-06-01T22:30:00Z,26.1290,-94.8980,1.0,6.5,108.0,99.0,'11111222,11111222,11144222' 
ADCP,ioos:station:wmo:42390:1,2014-06-01T23:30:00Z,26.1290,-94.8980,1.0,6.8,100.0,99.0,'11111222,11111222,11144222' 
ADCP,ioos:station:wmo:42390:1,2014-06-02T00:30:00Z,26.1290,-94.8980,1.0,7.3,102.0,99.0,'11111222,11111222,11144222' 
ADCP,ioos:station:wmo:42390:1,2014-06-02T01:30:00Z,26.1290,-94.8980,1.0,7.2,99.0,99.0,'11111222,11111222,11144222' 
ADCP,ioos:station:wmo:42390:1,2014-06-02T02:30:00Z,26.1290,-94.8980,1.0,7.4,95.0,99.0,'11111222,11111222,11144222' 
ADCP,ioos:station:wmo:42390:1,2014-06-02T03:30:00Z,26.1290,-94.8980,1.0,7.0,94.0,99.0,'11111222,11111222,11144222' 
ADCP,ioos:station:wmo:42390:1,2014-06-02T04:30:00Z,26.1290,-94.8980,1.0,6.9,101.0,99.0,'11111222,11111222,11144222' 
ADCP,ioos:station:wmo:42390:1,2014-06-02T05:30:00Z,26.1290,-94.8980,1.0,8.1,113.0,99.0,'11111222,11111222,11144222' 
ADCP,ioos:station:wmo:42390:1,2014-06-02T06:30:00Z,26.1290,-94.8980,1.0,8.7,110.0,99.0,'11111222,11111222,11144222' 
ADCP,ioos:station:wmo:42390:1,2014-06-02T07:30:00Z,26.1290,-94.8980,1.0,8.4,111.0,99.0,'11111222,11111222,11144222' 
ADCP,ioos:station:wmo:42390:1,2014-06-02T08:30:00Z,26.1290,-94.8980,1.0,7.6,115.0,99.0,'11111222,11111222,11144222' 
ADCP,ioos:station:wmo:42390:1,2014-06-02T09:30:00Z,26.1290,-94.8980,1.0,6.3,107.0,99.0,'11111222,11111222,11144222' 
ADCP,ioos:station:wmo:42390:1,2014-06-02T10:30:00Z,26.1290,-94.8980,1.0,7.1,109.0,99.0,'11111222,11111222,11144222' 
ADCP,ioos:station:wmo:42390:1,2014-06-02T11:30:00Z,26.1290,-94.8980,1.0,7.2,121.0,99.0,'11111222,11111222,11144222' 
ADCP,ioos:station:wmo:42390:1,2014-06-02T12:30:00Z,26.1290,-94.8980,1.0,5.2,129.0,99.0,'11111222,11111222,11144222' 
ADCP,ioos:station:wmo:42390:1,2014-06-02T13:30:00Z,26.1290,-94.8980,1.0,5.0,123.0,99.0,'11111222,11111222,11144222' 
ADCP,ioos:station:wmo:42390:1,2014-06-02T14:30:00Z,26.1290,-94.8980,1.0,6.3,123.0,99.0,'11111222,11111222,11144222' 
ADCP,ioos:station:wmo:42390:1,2014-06-02T15:30:00Z,26.1290,-94.8980,1.0,5.5,125.0,99.0,'11111222,11111222,11144222' 
ADCP,ioos:station:wmo:42390:1,2014-06-02T16:30:00Z,26.1290,-94.8980,1.0,3.8,133.0,99.0,'11111222,11111222,11144222' 
ADCP,ioos:station:wmo:42390:1,2014-06-02T17:30:00Z,26.1290,-94.8980,1.0,3.8,115.0,99.0,'11111222,11111222,11144222' 
ADCP,ioos:station:wmo:42390:1,2014-06-02T19:30:00Z,26.1290,-94.8980,1.0,3.2,85.0,99.0,'11111222,11111222,11144222' 
ADCP,ioos:station:wmo:42390:1,2014-06-02T21:30:00Z,26.1290,-94.8980,1.0,5.1,90.0,99.0,'11111222,11111222,11144222' 
ADCP,ioos:station:wmo:42390:1,2014-06-02T22:30:00Z,26.1290,-94.8980,1.0,5.7,81.0,99.0,'11111222,11111222,11144222' 
ADCP,ioos:station:wmo:42390:1,2014-06-02T23:30:00Z,26.1290,-94.8980,1.0,5.2,81.0,99.0,'11111222,11111222,11144222' 
ADCP,ioos:station:wmo:42390:1,2014-06-03T00:30:00Z,26.1290,-94.8980,1.0,4.7,87.0,99.0,'11111222,11111222,11144222' 
ADCP,ioos:station:wmo:42390:1,2014-06-03T01:30:00Z,26.1290,-94.8980,1.0,5.1,94.0,99.0,'11111222,11111222,11144222' 
ADCP,ioos:station:wmo:42390:1,2014-06-03T02:30:00Z,26.1290,-94.8980,1.0,6.3,108.0,99.0,'11111222,11111222,11144222' 
ADCP,ioos:station:wmo:42390:1,2014-06-03T03:30:00Z,26.1290,-94.8980,1.0,6.6,115.0,99.0,'11111222,11111222,11144222' 
ADCP,ioos:station:wmo:42390:1,2014-06-03T04:30:00Z,26.1290,-94.8980,1.0,6.0,117.0,99.0,'11111222,11111222,11144222' 
ADCP,ioos:station:wmo:42390:1,2014-06-03T05:30:00Z,26.1290,-94.8980,1.0,5.6,118.0,99.0,'11111222,11111222,11144222' 
ADCP,ioos:station:wmo:42390:1,2014-06-03T06:30:00Z,26.1290,-94.8980,1.0,6.3,110.0,99.0,'11111222,11111222,11144222' 
ADCP,ioos:station:wmo:42390:1,2014-06-03T07:30:00Z,26.1290,-94.8980,1.0,6.2,120.0,99.0,'11111222,11111222,11144222' 
ADCP,ioos:station:wmo:42390:1,2014-06-03T08:30:00Z,26.1290,-94.8980,1.0,6.3,124.0,99.0,'11111222,11111222,11144222' 
ADCP,ioos:station:wmo:42390:1,2014-06-03T09:30:00Z,26.1290,-94.8980,1.0,6.9,127.0,99.0,'11111222,11111222,11144222' 
ADCP,ioos:station:wmo:42390:1,2014-06-03T10:30:00Z,26.1290,-94.8980,1.0,6.0,124.0,99.0,'11111222,11111222,11144222' 
ADCP,ioos:station:wmo:42390:1,2014-06-03T11:30:00Z,26.1290,-94.8980,1.0,4.9,120.0,99.0,'11111222,11111222,11144222' 
ADCP,ioos:station:wmo:42390:1,2014-06-03T12:30:00Z,26.1290,-94.8980,1.0,4.0,111.0,99.0,'11111222,11111222,11144222' 
ADCP,ioos:station:wmo:42390:1,2014-06-03T13:30:00Z,26.1290,-94.8980,1.0,4.7,98.0,99.0,'11111222,11111222,11144222' 
ADCP,ioos:station:wmo:42390:1,2014-06-03T14:30:00Z,26.1290,-94.8980,1.0,5.9,99.0,99.0,'11111222,11111222,11144222' 
ADCP,ioos:station:wmo:42390:1,2014-06-03T15:30:00Z,26.1290,-94.8980,1.0,6.4,101.0,99.0,'11111222,11111222,11144222' 
ADCP,ioos:station:wmo:42390:1,2014-06-03T16:30:00Z,26.1290,-94.8980,1.0,6.6,101.0,99.0,'11111222,11111222,11144222' 
ADCP,ioos:station:wmo:42390:1,2014-06-03T17:30:00Z,26.1290,-94.8980,1.0,6.9,88.0,99.0,'11111222,11111222,11144222' 
ADCP,ioos:station:wmo:42390:1,2014-06-03T18:30:00Z,26.1290,-94.8980,1.0,7.3,90.0,99.0,'11111222,11111222,11144222' 
ADCP,ioos:station:wmo:42390:1,2014-06-03T19:30:00Z,26.1290,-94.8980,1.0,7.4,93.0,99.0,'11111222,11111222,11144222' 
ADCP,ioos:station:wmo:42390:1,2014-06-03T20:30:00Z,26.1290,-94.8980,1.0,6.9,89.0,99.0,'11111222,11111222,11144222' 
ADCP,ioos:station:wmo:42390:1,2014-06-03T21:30:00Z,26.1290,-94.8980,1.0,6.8,89.0,99.0,'11111222,11111222,11144222' 
ADCP,ioos:station:wmo:42390:1,2014-06-03T22:30:00Z,26.1290,-94.8980,1.0,6.9,90.0,99.0,'11111222,11111222,11144222' 
ADCP,ioos:station:wmo:42390:1,2014-06-03T23:30:00Z,26.1290,-94.8980,1.0,6.6,91.0,99.0,'11111222,11111222,11144222' 
ADCP,ioos:station:wmo:42390:1,2014-06-04T00:30:00Z,26.1290,-94.8980,1.0,6.7,89.0,99.0,'11111222,11111222,11144222' 
ADCP,ioos:station:wmo:42390:1,2014-06-04T01:30:00Z,26.1290,-94.8980,1.0,6.1,82.0,99.0,'11111222,11111222,11144222' 
ADCP,ioos:station:wmo:42390:1,2014-06-04T02:30:00Z,26.1290,-94.8980,1.0,7.4,88.0,99.0,'11111222,11111222,11144222' 
ADCP,ioos:station:wmo:42390:1,2014-06-04T03:30:00Z,26.1290,-94.8980,1.0,7.9,98.0,99.0,'11111222,11111222,11144222' 
ADCP,ioos:station:wmo:42390:1,2014-06-04T04:30:00Z,26.1290,-94.8980,1.0,7.5,108.0,99.0,'11111222,11111222,11144222' 
ADCP,ioos:station:wmo:42390:1,2014-06-04T05:30:00Z,26.1290,-94.8980,1.0,6.9,117.0,99.0,'11111222,11111222,11144222' 
ADCP,ioos:station:wmo:42390:1,2014-06-04T06:30:00Z,26.1290,-94.8980,1.0,6.4,126.0,99.0,'11111222,11111222,11144222' 
ADCP,ioos:station:wmo:42390:1,2014-06-04T07:30:00Z,26.1290,-94.8980,1.0,6.8,126.0,99.0,'11111222,11111222,11144222' 
ADCP,ioos:station:wmo:42390:1,2014-06-04T08:30:00Z,26.1290,-94.8980,1.0,7.3,128.0,99.0,'11111222,11111222,11144222' 
ADCP,ioos:station:wmo:42390:1,2014-06-04T09:30:00Z,26.1290,-94.8980,1.0,6.9,127.0,99.0,'11111222,11111222,11144222' 
ADCP,ioos:station:wmo:42390:1,2014-06-04T10:30:00Z,26.1290,-94.8980,1.0,6.2,130.0,99.0,'11111222,11111222,11144222' 
ADCP,ioos:station:wmo:42390:1,2014-06-04T11:30:00Z,26.1290,-94.8980,1.0,6.1,151.0,99.0,'11111222,11111222,11144222' 
ADCP,ioos:station:wmo:42390:1,2014-06-04T12:30:00Z,26.1290,-94.8980,1.0,5.8,143.0,99.0,'11111222,11111222,11144222' 
ADCP,ioos:station:wmo:42390:1,2014-06-04T13:30:00Z,26.1290,-94.8980,1.0,3.0,114.0,99.0,'11111222,11111222,11144222' 
ADCP,ioos:station:wmo:42390:1,2014-06-04T14:30:00Z,26.1290,-94.8980,1.0,2.4,108.0,99.0,'11111222,11111222,11144222' 
ADCP,ioos:station:wmo:42390:1,2014-06-04T15:30:00Z,26.1290,-94.8980,1.0,2.8,119.0,99.0,'11111222,11111222,11144222' 
ADCP,ioos:station:wmo:42390:1,2014-06-04T16:30:00Z,26.1290,-94.8980,1.0,4.5,126.0,99.0,'11111222,11111222,11144222' 
ADCP,ioos:station:wmo:42390:1,2014-06-04T17:30:00Z,26.1290,-94.8980,1.0,4.8,133.0,99.0,'11111222,11111222,11144222' 
ADCP,ioos:station:wmo:42390:1,2014-06-04T18:30:00Z,26.1290,-94.8980,1.0,6.8,179.0,99.0,'11111222,11111222,11144222' 
ADCP,ioos:station:wmo:42390:1,2014-06-04T19:30:00Z,26.1290,-94.8980,1.0,5.6,187.0,99.0,'11111222,11111222,11144222' 
ADCP,ioos:station:wmo:42390:1,2014-06-04T20:30:00Z,26.1290,-94.8980,1.0,2.2,181.0,99.0,'11111222,11111222,11144222' 
ADCP,ioos:station:wmo:42390:1,2014-06-04T21:30:00Z,26.1290,-94.8980,1.0,1.5,106.0,99.0,'11111222,11111222,11144222' 
ADCP,ioos:station:wmo:42390:1,2014-06-04T22:30:00Z,26.1290,-94.8980,1.0,3.5,94.0,99.0,'11111222,11111222,11144222' 
ADCP,ioos:station:wmo:42390:1,2014-06-04T23:30:00Z,26.1290,-94.8980,1.0,5.8,103.0,99.0,'11111222,11111222,11144222' 
ADCP,ioos:station:wmo:42390:1,2014-06-05T00:30:00Z,26.1290,-94.8980,1.0,6.4,107.0,99.0,'11111222,11111222,11144222' 
ADCP,ioos:station:wmo:42390:1,2014-06-05T01:30:00Z,26.1290,-94.8980,1.0,6.4,105.0,99.0,'11111222,11111222,11144222' 
ADCP,ioos:station:wmo:42390:1,2014-06-05T02:30:00Z,26.1290,-94.8980,1.0,6.5,103.0,99.0,'11111222,11111222,11144222' 
ADCP,ioos:station:wmo:42390:1,2014-06-05T03:30:00Z,26.1290,-94.8980,1.0,7.2,109.0,99.0,'11111222,11111222,11144222' 
ADCP,ioos:station:wmo:42390:1,2014-06-05T04:30:00Z,26.1290,-94.8980,1.0,7.2,117.0,99.0,'11111222,11111222,11144222' 
ADCP,ioos:station:wmo:42390:1,2014-06-05T05:30:00Z,26.1290,-94.8980,1.0,5.9,115.0,99.0,'11111222,11111222,11144222' 
ADCP,ioos:station:wmo:42390:1,2014-06-05T06:30:00Z,26.1290,-94.8980,1.0,5.9,117.0,99.0,'11111222,11111222,11144222' 
ADCP,ioos:station:wmo:42390:1,2014-06-05T07:30:00Z,26.1290,-94.8980,1.0,5.8,123.0,99.0,'11111222,11111222,11144222' 
ADCP,ioos:station:wmo:42390:1,2014-06-05T08:30:00Z,26.1290,-94.8980,1.0,5.2,121.0,99.0,'11111222,11111222,11144222' 
ADCP,ioos:station:wmo:42390:1,2014-06-05T09:30:00Z,26.1290,-94.8980,1.0,5.0,125.0,99.0,'11111222,11111222,11144222' 
ADCP,ioos:station:wmo:42390:1,2014-06-05T10:30:00Z,26.1290,-94.8980,1.0,5.6,120.0,99.0,'11111222,11111222,11144222' 
ADCP,ioos:station:wmo:42390:1,2014-06-05T11:30:00Z,26.1290,-94.8980,1.0,6.0,120.0,99.0,'11111222,11111222,11144222' 
ADCP,ioos:station:wmo:42390:1,2014-06-05T12:30:00Z,26.1290,-94.8980,1.0,6.5,122.0,99.0,'11111222,11111222,11144222' 
ADCP,ioos:station:wmo:42390:1,2014-06-05T13:30:00Z,26.1290,-94.8980,1.0,6.4,126.0,99.0,'11111222,11111222,11144222' 
ADCP,ioos:station:wmo:42390:1,2014-06-05T14:30:00Z,26.1290,-94.8980,1.0,6.2,117.0,99.0,'11111222,11111222,11144222' 
ADCP,ioos:station:wmo:42390:1,2014-06-05T15:30:00Z,26.1290,-94.8980,1.0,6.3,122.0,99.0,'11111222,11111222,11144222' 
ADCP,ioos:station:wmo:42390:1,2014-06-05T16:30:00Z,26.1290,-94.8980,1.0,6.2,127.0,99.0,'11111222,11111222,11144222' 
ADCP,ioos:station:wmo:42390:1,2014-06-05T17:30:00Z,26.1290,-94.8980,1.0,6.0,125.0,99.0,'11111222,11111222,11144222' 
ADCP,ioos:station:wmo:42390:1,2014-06-05T18:30:00Z,26.1290,-94.8980,1.0,6.5,128.0,99.0,'11111222,11111222,11144222' 
ADCP,ioos:station:wmo:42390:1,2014-06-05T19:30:00Z,26.1290,-94.8980,1.0,5.8,123.0,99.0,'11111222,11111222,11144222' 
ADCP,ioos:station:wmo:42390:1,2014-06-05T20:30:00Z,26.1290,-94.8980,1.0,5.7,126.0,99.0,'11111222,11111222,11144222' 
ADCP,ioos:station:wmo:42390:1,2014-06-05T21:30:00Z,26.1290,-94.8980,1.0,5.5,125.0,99.0,'11111222,11111222,11144222' 
ADCP,ioos:station:wmo:42390:1,2014-06-05T22:30:00Z,26.1290,-94.8980,1.0,5.3,120.0,99.0,'11111222,11111222,11144222' 
ADCP,ioos:station:wmo:42390:1,2014-06-05T23:30:00Z,26.1290,-94.8980,1.0,5.5,120.0,99.0,'11111222,11111222,11144222' 
ADCP,ioos:station:wmo:42390:1,2014-06-06T00:30:00Z,26.1290,-94.8980,1.0,5.7,115.0,99.0,'11111222,11111222,11144222' 
ADCP,ioos:station:wmo:42390:1,2014-06-06T01:30:00Z,26.1290,-94.8980,1.0,6.2,112.0,99.0,'11111222,11111222,11144222' 
ADCP,ioos:station:wmo:42390:1,2014-06-06T02:30:00Z,26.1290,-94.8980,1.0,6.8,126.0,99.0,'11111222,11111222,11144222' 
ADCP,ioos:station:wmo:42390:1,2014-06-06T03:30:00Z,26.1290,-94.8980,1.0,7.1,125.0,99.0,'11111222,11111222,11144222' 
ADCP,ioos:station:wmo:42390:1,2014-06-06T04:30:00Z,26.1290,-94.8980,1.0,7.4,121.0,99.0,'11111222,11111222,11144222' 
ADCP,ioos:station:wmo:42390:1,2014-06-06T05:30:00Z,26.1290,-94.8980,1.0,7.7,129.0,99.0,'11111222,11111222,11144222' 
ADCP,ioos:station:wmo:42390:1,2014-06-06T06:30:00Z,26.1290,-94.8980,1.0,8.0,130.0,99.0,'11111222,11111222,11144222' 
ADCP,ioos:station:wmo:42390:1,2014-06-06T07:30:00Z,26.1290,-94.8980,1.0,7.9,135.0,99.0,'11111222,11111222,11144222' 
ADCP,ioos:station:wmo:42390:1,2014-06-06T08:30:00Z,26.1290,-94.8980,1.0,7.4,140.0,99.0,'11111222,11111222,11144222' 
ADCP,ioos:station:wmo:42390:1,2014-06-06T09:30:00Z,26.1290,-94.8980,1.0,6.7,140.0,99.0,'11111222,11111222,11144222' 
ADCP,ioos:station:wmo:42390:1,2014-06-06T10:30:00Z,26.1290,-94.8980,1.0,6.5,140.0,99.0,'11111222,11111222,11144222' 
ADCP,ioos:station:wmo:42390:1,2014-06-06T11:30:00Z,26.1290,-94.8980,1.0,6.6,134.0,99.0,'11111222,11111222,11144222' 
ADCP,ioos:station:wmo:42390:1,2014-06-06T12:30:00Z,26.1290,-94.8980,1.0,6.6,130.0,99.0,'11111222,11111222,11144222' 
ADCP,ioos:station:wmo:42390:1,2014-06-06T13:30:00Z,26.1290,-94.8980,1.0,6.5,122.0,99.0,'11111222,11111222,11144222' 
ADCP,ioos:station:wmo:42390:1,2014-06-06T14:30:00Z,26.1290,-94.8980,1.0,6.6,120.0,99.0,'11111222,11111222,11144222' 
ADCP,ioos:station:wmo:42390:1,2014-06-06T15:30:00Z,26.1290,-94.8980,1.0,6.7,124.0,99.0,'11111222,11111222,11144222' 
ADCP,ioos:station:wmo:42390:1,2014-06-06T16:30:00Z,26.1290,-94.8980,1.0,7.0,145.0,99.0,'11111222,11111222,11144222' 
ADCP,ioos:station:wmo:42390:1,2014-06-06T17:30:00Z,26.1290,-94.8980,1.0,6.3,149.0,99.0,'11111222,11111222,11144222' 
ADCP,ioos:station:wmo:42390:1,2014-06-06T18:30:00Z,26.1290,-94.8980,1.0,5.5,138.0,99.0,'11111222,11111222,11144222' 
ADCP,ioos:station:wmo:42390:1,2014-06-06T19:30:00Z,26.1290,-94.8980,1.0,4.7,114.0,99.0,'11111222,11111222,11144222' 
ADCP,ioos:station:wmo:42390:1,2014-06-06T20:30:00Z,26.1290,-94.8980,1.0,4.6,93.0,99.0,'11111222,11111222,11144222' 
ADCP,ioos:station:wmo:42390:1,2014-06-06T21:30:00Z,26.1290,-94.8980,1.0,4.9,78.0,99.0,'11111222,11111222,11144222' 
ADCP,ioos:station:wmo:42390:1,2014-06-06T22:30:00Z,26.1290,-94.8980,1.0,5.9,79.0,99.0,'11111222,11111222,11144222' 
ADCP,ioos:station:wmo:42390:1,2014-06-06T23:30:00Z,26.1290,-94.8980,1.0,6.2,80.0,99.0,'11111222,11111222,11144222' 
ADCP,ioos:station:wmo:42390:1,2014-06-07T00:30:00Z,26.1290,-94.8980,1.0,6.0,97.0,99.0,'11111222,11111222,11144222' 
ADCP,ioos:station:wmo:42390:1,2014-06-07T01:30:00Z,26.1290,-94.8980,1.0,6.0,103.0,99.0,'11111222,11111222,11144222' 
ADCP,ioos:station:wmo:42390:1,2014-06-07T02:30:00Z,26.1290,-94.8980,1.0,6.2,111.0,99.0,'11111222,11111222,11144222' 
ADCP,ioos:station:wmo:42390:1,2014-06-07T03:30:00Z,26.1290,-94.8980,1.0,6.3,109.0,99.0,'11111222,11111222,11144222' 
ADCP,ioos:station:wmo:42390:1,2014-06-07T04:30:00Z,26.1290,-94.8980,1.0,6.8,113.0,99.0,'11111222,11111222,11144222' 
ADCP,ioos:station:wmo:42390:1,2014-06-07T05:30:00Z,26.1290,-94.8980,1.0,7.0,119.0,99.0,'11111222,11111222,11144222' 
ADCP,ioos:station:wmo:42390:1,2014-06-07T06:30:00Z,26.1290,-94.8980,1.0,7.3,129.0,99.0,'11111222,11111222,11144222' 
ADCP,ioos:station:wmo:42390:1,2014-06-07T07:30:00Z,26.1290,-94.8980,1.0,7.3,127.0,99.0,'11111222,11111222,11144222' 
ADCP,ioos:station:wmo:42390:1,2014-06-07T08:30:00Z,26.1290,-94.8980,1.0,6.5,127.0,99.0,'11111222,11111222,11144222' 
ADCP,ioos:station:wmo:42390:1,2014-06-07T09:30:00Z,26.1290,-94.8980,1.0,6.4,137.0,99.0,'11111222,11111222,11144222' 
ADCP,ioos:station:wmo:42390:1,2014-06-07T10:30:00Z,26.1290,-94.8980,1.0,6.5,141.0,99.0,'11111222,11111222,11144222' 
ADCP,ioos:station:wmo:42390:1,2014-06-07T11:30:00Z,26.1290,-94.8980,1.0,6.9,147.0,99.0,'11111222,11111222,11144222' 
ADCP,ioos:station:wmo:42390:1,2014-06-07T12:30:00Z,26.1290,-94.8980,1.0,6.3,149.0,99.0,'11111222,11111222,11144222' 
ADCP,ioos:station:wmo:42390:1,2014-06-07T13:30:00Z,26.1290,-94.8980,1.0,6.2,143.0,99.0,'11111222,11111222,11144222' 
ADCP,ioos:station:wmo:42390:1,2014-06-07T14:30:00Z,26.1290,-94.8980,1.0,5.9,143.0,99.0,'11111222,11111222,11144222' 
ADCP,ioos:station:wmo:42390:1,2014-06-07T15:30:00Z,26.1290,-94.8980,1.0,6.0,142.0,99.0,'11111222,11111222,11144222' 
ADCP,ioos:station:wmo:42390:1,2014-06-07T16:30:00Z,26.1290,-94.8980,1.0,6.1,140.0,99.0,'11111222,11111222,11144222' 
ADCP,ioos:station:wmo:42390:1,2014-06-07T17:30:00Z,26.1290,-94.8980,1.0,5.4,135.0,99.0,'11111222,11111222,11144222' 
ADCP,ioos:station:wmo:42390:1,2014-06-07T18:30:00Z,26.1290,-94.8980,1.0,5.5,133.0,99.0,'11111222,11111222,11144222' 
ADCP,ioos:station:wmo:42390:1,2014-06-07T19:30:00Z,26.1290,-94.8980,1.0,5.5,126.0,99.0,'11111222,11111222,11144222' 
ADCP,ioos:station:wmo:42390:1,2014-06-07T20:30:00Z,26.1290,-94.8980,1.0,5.8,131.0,99.0,'11111222,11111222,11144222' 
ADCP,ioos:station:wmo:42390:1,2014-06-07T21:30:00Z,26.1290,-94.8980,1.0,5.0,132.0,99.0,'11111222,11111222,11144222' 
ADCP,ioos:station:wmo:42390:1,2014-06-07T22:30:00Z,26.1290,-94.8980,1.0,5.3,135.0,99.0,'11111222,11111222,11144222' 
ADCP,ioos:station:wmo:42390:1,2014-06-07T23:30:00Z,26.1290,-94.8980,1.0,5.3,147.0,99.0,'11111222,11111222,11144222' 
ADCP,ioos:station:wmo:42390:1,2014-06-08T00:30:00Z,26.1290,-94.8980,1.0,4.9,128.0,99.0,'11111222,11111222,11144222' 
ADCP,ioos:station:wmo:42390:1,2014-06-08T01:30:00Z,26.1290,-94.8980,1.0,5.5,121.0,99.0,'11111222,11111222,11144222' 
ADCP,ioos:station:wmo:42390:1,2014-06-08T02:30:00Z,26.1290,-94.8980,1.0,6.5,118.0,99.0,'11111222,11111222,11144222' 
ADCP,ioos:station:wmo:42390:1,2014-06-08T03:30:00Z,26.1290,-94.8980,1.0,7.6,124.0,99.0,'11111222,11111222,11144222' 
ADCP,ioos:station:wmo:42390:1,2014-06-08T04:30:00Z,26.1290,-94.8980,1.0,7.7,130.0,99.0,'11111222,11111222,11144222' 
ADCP,ioos:station:wmo:42390:1,2014-06-08T05:30:00Z,26.1290,-94.8980,1.0,8.0,133.0,99.0,'11111222,11111222,11144222' 
ADCP,ioos:station:wmo:42390:1,2014-06-08T06:30:00Z,26.1290,-94.8980,1.0,7.8,137.0,99.0,'11111222,11111222,11144222' 
ADCP,ioos:station:wmo:42390:1,2014-06-08T07:30:00Z,26.1290,-94.8980,1.0,7.3,142.0,99.0,'11111222,11111222,11144222' 
ADCP,ioos:station:wmo:42390:1,2014-06-08T08:30:00Z,26.1290,-94.8980,1.0,8.1,150.0,99.0,'11111222,11111222,11144222' 
ADCP,ioos:station:wmo:42390:1,2014-06-08T09:30:00Z,26.1290,-94.8980,1.0,8.4,151.0,99.0,'11111222,11111222,11144222' 
ADCP,ioos:station:wmo:42390:1,2014-06-08T10:30:00Z,26.1290,-94.8980,1.0,8.3,150.0,99.0,'11111222,11111222,11144222' 
ADCP,ioos:station:wmo:42390:1,2014-06-08T11:30:00Z,26.1290,-94.8980,1.0,7.9,149.0,99.0,'11111222,11111222,11144222' 
ADCP,ioos:station:wmo:42390:1,2014-06-08T12:30:00Z,26.1290,-94.8980,1.0,8.0,148.0,99.0,'11111222,11111222,11144222' 
ADCP,ioos:station:wmo:42390:1,2014-06-08T13:30:00Z,26.1290,-94.8980,1.0,8.8,141.0,99.0,'11111222,11111222,11144222' 
ADCP,ioos:station:wmo:42390:1,2014-06-08T14:30:00Z,26.1290,-94.8980,1.0,9.0,147.0,99.0,'11111222,11111222,11144222' 
ADCP,ioos:station:wmo:42390:1,2014-06-08T15:30:00Z,26.1290,-94.8980,1.0,8.9,149.0,99.0,'11111222,11111222,11144222' 
ADCP,ioos:station:wmo:42390:1,2014-06-08T16:30:00Z,26.1290,-94.8980,1.0,8.1,148.0,99.0,'11111222,11111222,11144222' 
ADCP,ioos:station:wmo:42390:1,2014-06-08T17:30:00Z,26.1290,-94.8980,1.0,8.3,146.0,99.0,'11111222,11111222,11144222' 
ADCP,ioos:station:wmo:42390:1,2014-06-08T18:30:00Z,26.1290,-94.8980,1.0,7.9,144.0,99.0,'11111222,11111222,11144222' 
ADCP,ioos:station:wmo:42390:1,2014-06-08T19:30:00Z,26.1290,-94.8980,1.0,7.6,141.0,99.0,'11111222,11111222,11144222' 
ADCP,ioos:station:wmo:42390:1,2014-06-08T20:30:00Z,26.1290,-94.8980,1.0,10.5,199.0,99.0,'11111222,11111222,11144222' 
ADCP,ioos:station:wmo:42390:1,2014-06-08T21:30:00Z,26.1290,-94.8980,1.0,6.2,142.0,99.0,'11111222,11111222,11144222' 
ADCP,ioos:station:wmo:42390:1,2014-06-08T22:30:00Z,26.1290,-94.8980,1.0,6.0,149.0,99.0,'11111222,11111222,11144222' 
ADCP,ioos:station:wmo:42390:1,2014-06-08T23:30:00Z,26.1290,-94.8980,1.0,5.9,151.0,99.0,'11111222,11111222,11144222' 
ADCP,ioos:station:wmo:42390:1,2014-06-09T00:30:00Z,26.1290,-94.8980,1.0,7.1,151.0,99.0,'11111222,11111222,11144222' 
ADCP,ioos:station:wmo:42390:1,2014-06-09T01:30:00Z,26.1290,-94.8980,1.0,7.1,158.0,99.0,'11111222,11111222,11144222' 
ADCP,ioos:station:wmo:42390:1,2014-06-09T02:30:00Z,26.1290,-94.8980,1.0,7.2,160.0,99.0,'11111222,11111222,11144222' 
ADCP,ioos:station:wmo:42390:1,2014-06-09T03:30:00Z,26.1290,-94.8980,1.0,7.2,152.0,99.0,'11111222,11111222,11144222' 
ADCP,ioos:station:wmo:42390:1,2014-06-09T04:30:00Z,26.1290,-94.8980,1.0,8.2,152.0,99.0,'11111222,11111222,11144222' 
ADCP,ioos:station:wmo:42390:1,2014-06-09T05:30:00Z,26.1290,-94.8980,1.0,7.9,151.0,99.0,'11111222,11111222,11144222' 
ADCP,ioos:station:wmo:42390:1,2014-06-09T06:30:00Z,26.1290,-94.8980,1.0,6.8,155.0,99.0,'11111222,11111222,11144222' 
ADCP,ioos:station:wmo:42390:1,2014-06-09T07:30:00Z,26.1290,-94.8980,1.0,7.7,150.0,99.0,'11111222,11111222,11144222' 
ADCP,ioos:station:wmo:42390:1,2014-06-09T08:30:00Z,26.1290,-94.8980,1.0,7.8,148.0,99.0,'11111222,11111222,11144222' 
ADCP,ioos:station:wmo:42390:1,2014-06-09T09:30:00Z,26.1290,-94.8980,1.0,8.9,141.0,99.0,'11111222,11111222,11144222' 
ADCP,ioos:station:wmo:42390:1,2014-06-09T10:30:00Z,26.1290,-94.8980,1.0,10.0,143.0,99.0,'11111222,11111222,11144222' 
ADCP,ioos:station:wmo:42390:1,2014-06-09T11:30:00Z,26.1290,-94.8980,1.0,10.7,144.0,99.0,'11111222,11111222,11144222' 
ADCP,ioos:station:wmo:42390:1,2014-06-09T12:30:00Z,26.1290,-94.8980,1.0,10.9,146.0,99.0,'11111222,11111222,11144222' 
ADCP,ioos:station:wmo:42390:1,2014-06-09T13:30:00Z,26.1290,-94.8980,1.0,10.4,153.0,99.0,'11111222,11111222,11144222' 
ADCP,ioos:station:wmo:42390:1,2014-06-09T14:30:00Z,26.1290,-94.8980,1.0,10.6,160.0,99.0,'11111222,11111222,11144222' 